Skip Page Navigation
NASA JPL Caltech
NASA Logo - Jet Propulsion Laboratory + View the NASA Portal
+ Near-Earth Object (NEO) Program
Search JPL
JPL Home Earth Solar System Stars & Galaxies Technology
JPL Solar System Dynamics
BODIES ORBITS EPHEMERIDES TOOLS PHYSICAL DATA DISCOVERY FAQ SITE MAP
JPL Small-Body Database Browser
Search: [ help ]  
35725 Tramuntana (1999 FQ59)
Classification: Main-belt Asteroid          SPK-ID: 2035725
Ephemeris | Orbit Diagram | Orbital Elements | Physical Parameters | Discovery Circumstances ]

[ show orbit diagram ]
Orbital Elements at Epoch 2456400.5 (2013-Apr-18.0) TDB
Reference: MPO244500 (heliocentric ecliptic J2000)
 Element Value Uncertainty (1-sigma)   Units 
e 0.1633350 n/a  
a 2.5783906 n/a AU
q 2.1572492 n/a AU
i 5.79178 n/a deg
node 121.74869 n/a deg
peri 140.95516 n/a deg
M 89.36824 n/a deg
tp 2456025.0931490
(2012-Apr-07.59314900)
n/a JED
period 1512.2426756
4.14
n/a
n/a
d
yr
n 0.23805703 n/a deg/d
Q 2.9995320 n/a AU
  Orbit Determination Parameters
   # obs. used (total)      461  
   first obs. used      1991-??-??  
   last obs. used      2012-11-02  
   # oppositions      12  
   planetary ephem.      DE403  
   condition code      0  
   fit RMS      0.57  
   data source      MPC:mpn  
   producer      MPCLINUX  

Additional Information
 T_jup = 3.400 

Ephemeris | Orbit Diagram | Orbital Elements | Physical Parameters | Discovery Circumstances ]

Physical Parameter Table
Parameter Symbol Value Units Sigma Reference Notes
absolute magnitude H 15.0 mag n/a PDS3 (MPO 24319)  

35725 Tramuntana           Discovered 1999 Mar. 27 by A. Lopez and R. Pacheco at Observatori Astronomic de Mallorca.
Tramuntana is the name of the principal mountain chain of the island of Mallorca. It is located on the north side of the island, crossing it from east to west. Tramuntana is also the name of the north wind.
NOTE: some special characters may not display properly (any characters within {} are an attempt to place the proper accent above a character)
Reference: 20030806/MPCPages.arcLast Updated: 2003-10-02

Alternate Designations
 1999 FQ59 = 1991 KB1 = 2000 QV103 
Ephemeris | Orbit Diagram | Orbital Elements | Physical Parameters | Discovery Circumstances ]
ABOUT SSD CREDITS/AWARDS PRIVACY/COPYRIGHT GLOSSARY LINKS
FirstGov 2013-May-23 03:55 UT
(server date/time)  
NASA Home Page
Site Manager:   Donald K. Yeomans
Webmaster  Alan B. Chamberlin